STARLINK-2433 (47841 NORAD) Tracking and Keplerian Element Data

This shows tracking and keplerian element data for the satellite.

Feedback or suggestion? Click here.




ElementValue
Catalog47841
NameSTARLINK-2433
Epoch Orbit196
Epoch Day173.91668981
Epoch Year2021
RAAN37.0237
Inclination53.0485
Eccentricity0.0001519
Argument of Perigee60.5744
Mean Anonmoly143.6386
Mean Motion15.24072562
Decay Rate-0.01060172
L11 47841U 21018BG 21173.91668981 -.01060172 00000-0 -47047-1 0 9990
L22 47841 53.0485 37.0237 0001519 60.5744 143.6386 15.24072562 1966

Live tracking and technical data element details for STARLINK-2433 (NORAD 47841). STARLINK-2433 can be tracked NOW for your location showing map with azimuth and elevation plus other details from your city location.

Track the satellite on the map from your city or location and see movement details for azimuth, elevation, latitude, longitude, range, height, and movement on the map or in text.







IsCatalogInMostPopularTable: catalog: 47841, numindb: 42
Update: records affected: 1



GetName: 47841 STARLINK-2433

Hit Count: updated at: Thu, 24 Jun 2021 03:03:06 GMT